Theta_e
332 331 331 330 331 331 330 331 331 330 330 330 328 326 324 322 323 326 327 328 331 330 328 328 329 328 328 327 329 331 332 333 333 332 332 331 331 331 331 331 332 332 333 333 332 331 330 329 329 328 328 328 325 319 311 302 302 302 301 302 302 302 302 305 314 319 320 322 322 321 321 320 320 319 319 318 317 317 317 316 316 316 316 316 315 315
331 330 331 330 330 330 329 330 331 330 330 331 329 327 325 323 322 326 328 327 330 329 326 326 328 327 327 327 328 331 331 332 332 332 332 331 331 331 331 331 332 333 334 333 332 331 330 330 329 328 328 328 326 322 316 306 302 303 302 302 302 302 302 302 307 310 310 317 321 321 322 321 320 320 319 319 318 317 317 316 316 316 316 315 316 315
330 331 330 329 330 330 330 330 329 331 331 330 329 327 325 324 325 326 327 328 329 329 326 326 327 326 327 327 328 330 329 331 331 330 331 331 331 331 331 332 332 333 335 334 334 333 331 330 329 329 328 329 327 323 320 311 302 302 302 302 302 302 302 302 302 302 304 310 314 316 319 320 320 320 319 319 318 317 317 317 316 316 316 316 315 315
328 329 330 330 329 329 330 330 330 330 331 330 329 327 324 326 327 325 326 329 329 329 328 327 328 327 327 327 326 329 330 330 330 330 330 331 331 332 331 332 332 333 334 335 336 333 332 330 329 329 329 329 328 323 322 317 305 302 303 302 302 302 302 302 302 302 303 306 308 310 313 315 317 318 319 318 318 318 317 317 317 316 316 316 316 315
327 328 330 330 329 330 330 330 331 330 329 329 329 328 326 326 328 326 327 329 329 329 328 329 330 327 326 328 326 328 330 329 331 330 331 331 331 332 332 332 332 333 334 336 337 334 332 331 330 330 329 329 328 323 323 322 310 302 303 302 302 302 302 302 302 302 302 304 307 309 311 314 316 318 319 319 319 319 318 317 317 316 316 316 315 316
328 330 329 329 329 329 331 330 330 330 328 327 329 329 329 328 328 327 329 328 327 328 327 332 333 329 325 328 328 328 329 329 330 331 331 331 331 332 332 333 333 333 335 336 337 335 332 332 330 330 330 329 328 324 323 324 316 305 302 303 302 302 302 302 302 302 302 303 307 312 317 320 320 320 320 320 319 318 318 318 317 316 317 316 315 316
328 329 329 329 330 330 330 330 330 329 328 326 327 329 329 330 329 327 329 327 325 326 326 331 333 327 324 328 329 329 329 328 330 331 331 331 331 332 332 332 333 333 335 336 337 336 334 332 331 330 330 329 327 324 323 324 323 314 304 302 302 302 302 302 302 302 302 302 305 311 316 320 321 321 321 320 317 316 317 317 317 317 317 316 316 316
329 329 329 329 330 330 329 329 330 329 328 326 327 329 329 328 329 328 328 327 325 327 327 328 329 325 323 327 328 330 329 328 330 330 330 331 330 331 331 331 332 332 334 336 336 336 334 331 331 331 330 327 325 324 324 324 325 323 313 304 302 302 302 302 302 302 301 302 304 307 311 316 320 320 320 320 318 316 315 316 317 317 317 317 316 316
329 329 329 330 330 331 330 329 329 330 329 328 328 330 329 328 329 329 328 328 327 327 325 325 327 324 321 325 329 329 329 329 330 330 330 330 330 330 331 331 331 331 332 333 335 335 333 331 331 331 330 327 324 322 324 324 325 326 321 310 302 302 302 302 302 302 302 302 302 305 309 315 319 319 319 318 318 317 316 317 318 317 317 317 316 316
328 329 329 330 330 330 330 329 329 330 329 330 329 329 329 329 329 330 330 327 326 326 323 323 325 324 321 324 327 328 327 329 330 329 329 330 330 330 331 330 331 331 332 332 334 334 333 332 330 331 331 328 325 322 323 325 324 325 325 317 307 302 302 302 302 302 302 302 301 303 306 310 316 319 317 316 318 318 317 317 318 317 317 317 316 316
326 327 329 329 330 330 330 329 329 330 330 329 329 328 328 329 329 329 329 327 325 324 322 323 325 324 322 322 325 327 328 329 329 329 329 330 330 330 330 331 330 331 331 331 333 335 333 331 330 330 330 329 326 324 323 324 325 325 325 322 315 306 302 302 303 302 302 302 301 303 304 306 312 317 317 317 318 318 318 318 318 317 316 316 316 314
326 326 328 329 330 330 329 329 330 330 329 329 329 329 326 326 327 326 325 326 324 321 322 325 326 325 322 321 325 328 328 328 329 328 330 329 330 330 331 331 330 330 331 331 332 335 333 330 329 329 329 329 326 324 324 324 325 325 325 325 321 311 303 302 303 302 302 302 302 302 303 303 307 310 314 317 317 316 317 318 318 317 316 316 315 314
326 326 327 328 329 330 329 329 329 328 328 329 328 327 323 321 323 322 322 322 321 322 324 326 327 325 322 322 326 328 328 328 329 329 330 330 331 331 330 330 330 331 331 331 333 333 331 329 330 330 329 329 327 326 325 324 325 325 325 325 324 318 308 302 303 303 302 302 302 302 302 303 303 304 307 311 313 313 312 314 315 316 316 315 314 313
322 326 327 327 328 330 330 328 327 327 328 329 327 324 321 320 320 320 320 320 320 322 324 326 327 324 321 324 328 328 328 329 330 330 330 331 332 331 330 330 331 331 331 332 334 333 330 329 330 330 330 329 328 326 326 325 325 325 325 325 325 323 315 305 302 303 302 302 302 302 302 303 303 304 303 304 307 308 307 309 311 312 311 311 312 313
320 321 325 326 327 329 329 329 328 328 329 329 329 326 323 321 320 320 320 320 320 321 323 326 325 321 320 324 328 328 329 330 329 329 330 331 332 331 331 331 332 333 333 333 334 334 332 330 329 330 330 330 328 327 326 325 325 325 326 325 325 325 321 310 302 303 303 302 302 302 302 302 303 304 303 303 304 304 304 306 308 308 308 307 309 311
319 320 325 326 328 329 329 330 330 329 327 329 329 326 323 323 323 322 322 324 323 321 321 323 323 322 324 326 328 329 329 329 329 330 330 330 330 331 331 331 332 333 334 334 334 335 333 330 329 330 330 330 329 327 326 325 326 325 325 326 325 325 324 316 306 302 303 303 302 302 302 302 303 303 304 303 303 303 302 304 306 308 308 306 306 307
318 320 326 326 326 328 328 330 330 328 327 327 327 324 325 327 325 322 322 326 326 321 319 320 321 322 325 326 326 328 327 328 329 328 330 330 329 331 331 330 331 331 333 334 334 335 333 329 329 329 329 329 328 326 326 325 325 325 325 326 326 325 325 323 315 305 303 303 302 302 302 302 303 304 304 304 303 303 302 302 303 305 306 305 305 305
321 320 325 326 326 328 329 330 330 329 328 327 324 325 327 327 327 324 322 322 321 318 318 319 319 319 321 323 326 328 328 328 328 328 329 330 330 330 331 330 330 331 333 334 335 334 332 330 329 328 328 329 328 326 326 325 325 325 325 325 326 326 325 326 323 312 303 303 303 302 302 302 302 304 304 304 303 303 302 303 303 303 303 305 304 304
324 319 322 326 326 327 329 328 327 328 328 327 326 328 326 323 323 323 321 319 318 317 318 318 319 318 318 322 325 327 328 328 328 327 328 329 329 330 330 330 330 333 334 334 335 333 331 329 330 329 328 328 328 327 326 326 325 325 325 325 325 326 326 326 326 319 309 303 303 303 303 302 302 303 304 304 304 303 302 303 306 305 302 303 303 303
325 321 320 323 326 327 327 326 323 324 327 327 327 328 326 324 323 322 321 321 318 317 317 318 318 318 319 324 326 327 328 329 328 328 328 328 329 330 330 330 330 332 334 334 334 334 331 330 330 330 329 329 329 328 328 326 326 325 325 325 325 326 327 327 326 323 315 305 303 303 303 302 302 302 303 304 304 304 303 303 306 305 302 302 302 302
326 324 319 322 325 324 324 325 324 324 325 325 324 324 324 325 324 323 322 321 319 317 317 317 316 318 322 325 328 327 327 329 328 328 328 328 330 329 329 330 330 331 334 334 333 334 333 331 330 330 330 331 330 329 329 328 327 326 325 326 326 325 327 327 326 325 318 308 303 303 303 302 303 302 302 303 304 304 304 303 304 303 302 301 302 302
325 324 320 319 321 321 323 326 326 326 326 326 324 323 324 324 322 321 320 320 319 318 318 318 316 319 324 326 327 327 327 328 328 328 329 329 330 329 331 333 333 334 337 336 335 337 335 330 330 331 330 331 330 329 330 329 329 328 327 326 326 326 327 328 327 325 320 310 303 303 303 302 302 302 302 302 303 304 304 304 303 302 302 302 302 302
327 325 320 318 321 322 323 325 323 325 327 326 325 325 325 325 322 319 318 319 320 318 319 319 316 319 326 328 328 328 328 328 328 328 329 328 329 331 333 335 334 332 334 333 332 335 333 330 330 332 331 330 330 329 329 329 329 329 328 328 328 327 328 328 327 326 322 314 306 303 303 303 302 302 302 302 302 303 303 304 304 303 302 302 302 302
327 325 319 317 320 322 323 323 323 324 325 325 325 326 325 325 324 323 322 322 320 319 319 318 316 320 327 330 330 330 329 329 329 329 329 329 331 333 334 335 333 329 328 328 328 330 330 329 330 332 332 332 331 329 329 329 329 329 329 329 329 329 329 329 328 327 324 318 310 304 303 303 302 302 302 302 302 302 302 303 303 303 303 302 302 302
322 322 320 316 317 319 320 321 321 322 324 324 325 326 325 325 326 325 325 324 321 318 319 317 316 320 327 330 329 329 329 329 329 330 330 331 332 332 333 334 332 329 328 328 327 327 328 329 331 333 333 334 333 330 329 329 329 329 330 331 331 330 330 329 329 327 326 322 316 309 304 303 302 302 302 302 302 302 302 302 302 302 302 301 301 302
321 323 322 316 315 317 317 318 319 321 323 324 325 326 326 325 326 325 322 321 319 319 320 318 317 322 328 330 328 328 328 329 330 331 331 331 332 332 334 334 333 331 330 330 328 327 327 328 333 334 333 334 334 332 330 329 329 329 330 331 331 331 330 330 328 327 326 324 321 316 310 306 304 302 302 302 302 302 301 301 301 301 301 301 301 302
325 326 325 319 317 318 317 319 323 324 322 322 322 325 325 325 326 326 322 319 320 320 320 319 320 322 326 329 329 329 329 329 330 331 331 332 333 335 335 335 334 334 333 331 329 328 328 328 331 332 331 332 334 333 331 330 329 330 330 330 331 332 331 330 328 327 327 326 324 321 318 314 309 306 304 303 302 302 302 301 301 301 301 301 301 301
326 324 325 323 321 321 322 323 325 325 323 321 322 323 324 325 326 326 322 321 323 320 317 321 325 322 324 328 329 329 330 330 331 331 331 332 333 334 334 334 334 334 334 333 332 332 332 331 330 330 329 330 331 332 332 331 331 331 330 331 332 332 332 330 328 328 328 327 326 325 323 319 315 312 310 309 307 305 302 302 302 303 303 303 301 300
325 321 323 325 324 324 325 325 325 324 324 323 324 323 324 325 325 326 324 325 325 321 319 324 327 323 325 328 327 328 330 330 331 332 332 333 332 333 333 333 333 334 334 335 335 336 335 334 332 331 330 330 330 331 331 330 331 330 330 330 331 332 332 331 330 330 329 329 328 327 325 323 320 318 316 316 314 311 308 306 306 306 305 305 303 301
327 325 328 327 324 324 325 324 325 324 323 324 324 324 325 325 325 325 325 326 326 325 325 327 327 325 327 328 329 331 332 330 332 333 332 332 332 332 332 332 332 333 334 335 336 336 336 335 334 332 331 332 331 331 332 332 332 331 331 331 332 332 332 332 331 331 330 330 330 329 327 325 323 321 320 319 318 317 315 314 312 310 308 306 305 303
327 326 331 328 323 323 324 324 324 324 323 322 323 324 325 325 325 325 326 329 329 327 329 331 327 327 330 332 333 335 335 334 333 332 332 332 331 331 331 332 332 333 334 335 336 336 336 336 335 333 333 333 332 332 332 332 333 333 332 332 332 333 333 332 332 332 331 331 331 330 329 328 326 324 322 321 320 319 318 317 317 316 314 310 308 305
328 327 331 327 320 320 324 324 323 324 324 321 322 324 324 324 325 326 327 330 328 327 331 330 325 326 332 334 334 334 334 333 332 331 332 332 331 331 331 332 333 333 333 334 335 335 336 336 336 334 335 335 334 334 334 334 334 334 333 333 333 332 333 332 332 331 331 331 331 330 330 329 328 327 325 324 322 320 320 318 318 318 317 316 313 308
328 326 327 324 318 320 325 324 323 324 321 319 322 325 325 325 326 327 328 329 329 329 331 327 325 331 337 333 332 332 333 331 332 332 333 333 332 332 332 332 333 334 335 335 335 336 337 336 336 335 335 336 336 336 336 335 335 335 334 333 333 332 332 332 332 331 331 330 330 330 329 329 328 328 327 325 324 322 321 320 319 319 318 318 316 313
330 327 326 323 318 319 325 326 324 322 319 320 327 330 326 326 327 326 327 328 329 329 330 329 332 336 336 334 334 334 332 332 332 333 333 333 333 333 333 333 334 335 336 336 337 337 337 336 335 335 335 336 336 336 335 335 335 335 334 334 333 333 332 331 331 330 329 329 329 328 328 327 327 327 326 325 324 324 323 322 321 320 319 318 318 317
331 328 326 323 319 321 326 325 322 320 322 327 333 331 327 328 328 328 328 329 329 328 328 332 333 333 334 335 336 335 334 335 334 334 335 335 334 335 335 335 336 336 337 338 338 338 337 336 335 334 334 335 335 335 336 335 336 335 334 334 333 332 332 331 330 330 329 329 328 328 328 327 327 327 326 325 325 324 323 322 321 321 320 319 318 318
330 328 326 325 323 323 323 321 320 323 328 332 333 330 327 328 329 328 327 327 329 329 328 329 331 333 334 334 334 334 335 336 335 336 337 337 335 336 336 336 337 338 338 338 336 335 335 334 333 333 334 334 335 335 335 335 335 334 333 333 332 331 331 331 329 329 328 328 327 326 326 325 325 325 326 325 325 325 325 324 322 320 319 318 318 318
328 329 325 324 324 324 320 318 321 325 326 330 332 331 329 330 331 329 326 325 328 330 329 329 330 332 332 331 332 333 333 333 333 334 336 337 336 336 337 338 338 337 336 335 333 332 332 333 333 334 333 332 331 330 331 331 331 331 330 329 329 328 328 327 326 324 323 322 321 321 320 320 320 320 320 321 322 323 324 325 325 323 320 319 318 318
327 329 327 323 322 323 320 318 320 321 322 325 330 333 333 333 334 332 327 325 330 333 332 331 331 331 332 333 333 333 332 332 332 332 335 337 337 337 338 338 336 335 333 333 332 331 331 330 330 328 326 324 323 322 322 323 324 325 325 323 324 324 324 324 323 322 321 320 320 320 320 319 319 319 319 319 318 319 319 321 323 325 324 322 319 318
326 330 329 324 321 322 320 318 319 319 321 326 333 335 334 332 333 332 325 323 330 336 334 332 333 334 334 334 334 333 332 331 332 334 335 337 337 337 337 336 334 332 331 331 330 329 328 325 324 322 321 321 321 320 320 321 321 322 322 322 323 323 322 321 322 322 322 321 320 320 320 320 320 320 320 320 319 319 319 319 320 322 324 324 322 319
326 328 328 323 320 321 321 319 318 319 325 333 336 334 331 332 332 328 321 323 332 337 335 334 336 335 334 334 334 333 331 331 333 335 336 337 337 337 335 333 331 330 329 329 328 326 325 323 322 322 322 322 321 321 322 322 321 321 321 323 323 322 320 320 320 321 321 321 321 322 322 321 321 320 320 320 320 320 320 320 320 320 322 323 323 321
326 325 325 322 321 321 320 319 318 321 329 335 334 331 332 332 329 324 322 327 336 339 338 338 337 336 336 334 334 334 335 336 337 337 336 337 337 334 332 330 329 328 328 327 325 324 324 323 323 322 322 321 322 322 323 323 322 321 320 320 319 317 316 316 316 317 318 319 321 321 321 321 320 318 318 319 319 320 320 320 320 320 320 321 321 321
325 324 324 323 322 321 321 320 319 321 329 333 332 332 333 329 324 324 330 335 338 339 341 340 337 336 336 335 335 336 337 337 337 336 336 334 332 330 329 328 328 327 326 325 323 323 323 322 321 322 321 321 322 323 323 322 321 319 317 315 314 313 312 312 312 313 315 316 317 317 317 316 314 314 316 317 317 317 318 319 319 320 320 320 320 320
326 323 320 322 323 322 321 321 319 321 328 333 332 331 332 330 328 331 336 338 340 341 341 339 338 337 336 336 337 337 336 336 335 334 333 331 329 329 328 329 329 327 325 324 323 323 322 322 322 321 321 321 321 321 320 318 316 315 313 312 312 311 312 312 312 313 313 314 316 315 314 314 315 315 318 318 317 316 317 318 318 319 320 320 320 319
328 324 322 323 325 324 320 321 324 327 330 332 331 330 331 330 330 336 337 337 340 341 339 337 337 336 335 337 337 335 335 335 333 332 331 330 329 328 327 327 327 325 324 324 323 322 322 322 321 321 320 320 319 317 316 315 313 313 312 312 312 312 312 313 313 313 314 316 317 317 316 317 318 318 318 318 317 317 318 319 319 319 320 320 320 319
328 328 326 326 328 327 325 328 334 333 331 332 335 337 336 330 327 332 339 338 338 338 337 336 337 336 337 337 336 334 334 332 331 331 330 329 328 327 327 326 325 324 324 323 322 322 322 321 320 319 318 317 316 314 314 313 313 312 312 312 312 312 313 313 311 311 313 315 317 317 316 317 317 316 316 317 317 317 318 318 319 319 319 319 319 319
327 328 327 328 329 328 329 334 336 333 331 333 334 335 335 331 326 330 338 340 337 336 337 336 336 336 336 335 334 334 333 331 331 330 329 328 328 326 326 325 324 323 322 322 321 321 321 320 318 317 316 315 314 314 314 313 313 313 312 312 312 311 311 311 309 308 312 314 315 315 316 316 315 314 315 315 316 316 316 317 317 318 318 318 318 318
327 326 325 329 329 326 327 334 336 333 333 335 333 331 332 331 329 332 338 339 336 335 335 336 336 336 335 333 334 333 332 331 330 329 328 327 326 324 324 323 323 322 322 321 320 320 319 319 317 315 315 314 313 314 314 313 313 313 311 311 311 310 311 311 309 309 312 314 314 314 315 314 313 313 313 314 315 314 315 315 316 316 316 317 317 317
327 325 325 328 329 328 330 334 335 333 333 333 333 333 333 331 330 333 336 335 333 334 334 334 334 334 334 334 333 332 331 330 329 328 328 327 326 325 324 323 322 321 320 319 319 318 318 318 317 315 315 314 313 313 313 312 312 312 311 311 311 310 311 311 309 310 313 314 313 314 314 313 312 311 312 313 313 313 314 314 314 314 314 314 315 316
325 325 326 328 329 329 331 333 332 333 332 332 333 334 334 333 331 331 332 331 331 333 334 334 334 334 334 333 332 331 330 330 329 328 327 327 326 325 323 322 321 320 319 317 317 316 316 316 316 315 315 313 313 312 312 312 312 312 311 311 311 311 311 311 310 311 312 313 312 312 312 311 310 310 310 311 311 311 311 312 312 312 312 312 312 312
324 325 326 327 328 329 331 333 333 332 332 332 332 332 332 332 330 330 331 331 331 331 333 334 335 334 333 332 331 331 330 329 328 327 326 325 324 323 322 321 320 318 317 316 315 314 315 315 314 314 313 312 313 313 313 313 312 312 312 312 312 311 310 310 310 310 310 311 310 310 310 308 308 308 308 309 309 309 309 309 309 310 310 310 309 308
324 325 325 326 328 329 330 331 331 333 334 334 334 331 329 329 330 331 331 331 331 332 332 333 334 333 332 332 331 330 329 327 326 325 325 325 323 321 320 319 318 317 316 315 315 315 314 314 313 313 312 312 313 314 314 313 313 312 312 311 311 310 309 308 309 308 308 308 308 307 307 306 306 307 307 307 308 309 309 309 309 309 309 309 308 307
Wind_Speed
6 5 4 4 2 3 5 5 2 2 2 1 2 2 3 4 5 6 6 6 6 4 4 4 3 4 5 7 8 9 10 10 10 10 9 9 9 9 8 8 7 5 4 4 4 5 4 5 5 5 4 3 3 6 5 1 1 2 2 2 2 1 2 3 4 4 4 4 4 4 3 3 3 2 2 3 2 2 3 3 4 4 5 5 5 6
5 5 3 3 1 1 4 5 4 4 2 1 3 3 4 3 5 6 4 6 5 4 4 5 4 5 6 6 9 9 9 9 10 10 10 9 9 8 8 7 6 5 5 5 5 5 5 5 5 5 4 4 3 4 6 4 1 2 2 2 1 1 1 2 3 5 5 5 5 4 4 3 3 2 2 2 3 2 3 4 4 4 4 5 6 7
5 5 2 0 0 1 3 5 6 5 3 3 3 4 4 3 5 6 4 5 5 4 3 5 4 5 7 7 8 10 9 9 10 10 9 10 9 9 8 8 7 6 6 6 6 6 5 5 5 4 4 4 2 3 5 5 2 1 2 2 1 1 1 2 3 3 5 6 6 5 4 4 2 3 3 2 3 3 3 4 4 4 4 4 6 7
2 1 2 2 3 4 5 7 7 5 5 4 3 3 3 5 4 3 5 6 6 4 1 2 5 4 7 7 8 10 10 9 10 10 9 9 9 8 7 7 7 7 7 7 7 7 5 5 5 4 4 3 2 1 3 5 3 0 2 1 1 1 1 2 2 2 3 4 4 4 3 3 2 2 3 3 4 4 3 4 4 4 4 4 5 6
4 3 4 3 5 6 6 7 7 5 4 4 3 3 3 5 3 1 5 7 6 6 5 4 5 4 6 7 7 9 10 9 10 11 11 10 10 9 7 6 7 7 7 7 8 7 5 4 4 4 4 3 1 0 2 3 3 1 1 1 0 0 1 2 2 2 2 2 3 2 2 2 2 2 3 3 3 4 4 4 3 4 5 5 5 6
3 2 5 7 6 7 6 6 7 5 3 4 5 4 1 2 3 2 6 7 5 6 5 1 0 2 5 7 6 8 9 10 11 12 13 12 12 11 10 9 8 7 7 7 8 8 6 6 6 5 4 3 2 1 1 2 3 2 1 1 1 0 1 2 2 1 1 2 2 2 2 2 3 3 3 4 4 4 4 4 4 4 5 5 6 6
1 4 7 7 7 7 4 4 6 5 4 2 4 3 4 3 4 4 6 6 3 2 3 4 2 1 4 5 4 5 8 9 11 12 12 13 12 12 12 10 9 8 8 8 8 8 7 7 7 6 4 4 3 2 2 1 2 3 2 1 1 0 1 2 2 2 1 2 2 3 3 4 4 4 4 5 5 4 4 5 4 5 5 5 6 6
3 7 8 8 7 6 3 4 5 6 5 2 5 3 6 6 6 6 5 4 1 2 2 4 3 2 3 5 4 4 7 8 9 10 11 12 12 12 12 10 9 8 8 8 7 8 8 7 7 7 5 5 4 4 2 2 2 3 3 2 1 1 1 2 2 3 2 2 2 3 3 4 4 5 5 5 6 5 5 5 5 5 5 5 6 6
5 7 8 9 7 5 5 3 5 8 4 4 5 3 4 5 5 5 5 3 1 2 4 4 3 3 3 5 4 5 6 6 7 7 8 10 11 12 13 12 10 9 8 8 8 8 8 8 9 8 7 6 5 4 3 2 2 3 4 3 2 2 2 2 2 3 2 2 2 2 3 3 3 4 5 5 5 5 6 5 5 4 4 5 5 6
4 3 4 6 5 2 4 2 4 7 2 4 6 4 3 4 4 5 5 2 3 4 2 5 2 3 2 4 4 4 3 3 4 4 5 6 8 11 12 12 11 10 10 9 8 8 8 8 10 10 9 8 6 5 4 3 2 2 3 4 3 3 2 2 2 3 3 2 2 2 3 3 3 4 5 5 4 5 6 5 4 4 3 4 5 7
4 2 2 4 2 2 5 5 3 4 2 5 7 6 5 5 4 4 4 3 4 3 2 4 1 3 1 2 2 2 1 1 3 4 5 6 7 9 11 12 12 12 11 10 9 10 9 10 10 10 10 9 7 6 5 4 3 2 2 3 3 3 2 2 2 2 2 2 2 2 3 3 2 3 4 4 4 4 5 4 3 4 4 4 5 7
5 5 3 3 3 4 7 6 4 4 4 6 6 5 5 4 4 5 4 4 3 2 3 3 1 3 1 2 2 3 3 2 3 3 6 6 7 9 11 11 12 12 12 11 11 11 11 11 10 10 10 9 8 7 6 5 4 3 2 2 3 3 2 2 1 2 2 2 2 2 3 3 2 3 3 4 4 3 3 3 4 4 4 5 6 6
6 6 5 6 6 7 8 6 5 5 6 6 4 4 3 2 4 4 3 3 2 3 4 3 1 3 1 3 2 3 4 4 3 3 5 6 7 9 10 10 11 11 12 12 12 13 14 12 11 10 10 9 8 7 7 6 5 4 3 2 2 3 3 2 1 2 2 2 2 2 2 3 3 3 3 3 3 4 4 3 4 4 4 5 5 4
5 5 7 7 6 10 10 5 5 5 6 6 4 3 1 0 2 3 2 2 2 3 4 3 2 2 1 3 3 4 4 5 5 4 5 6 7 8 9 10 10 11 12 12 13 14 14 14 12 11 10 9 8 8 8 7 6 5 4 2 2 3 3 2 1 2 3 3 3 2 3 3 3 3 3 3 3 4 4 4 4 4 4 4 4 4
4 4 8 9 6 11 13 6 3 3 5 5 2 1 0 0 0 2 1 1 3 3 4 4 3 1 2 3 4 5 5 6 6 7 7 7 7 7 7 8 9 10 11 12 13 13 14 15 13 12 11 9 8 8 9 8 7 6 4 3 3 3 3 3 2 2 3 3 3 3 3 3 4 4 4 4 3 4 4 4 4 4 4 4 3 4
6 3 8 7 4 11 13 6 3 3 4 4 2 3 1 0 1 1 1 3 3 0 3 4 3 1 3 4 5 5 5 7 7 8 9 9 8 8 7 7 8 9 10 11 12 12 14 16 14 12 11 10 10 10 10 9 8 6 5 4 4 3 3 3 3 3 3 4 4 4 4 4 4 4 4 4 4 4 3 3 4 4 5 4 4 4
5 2 8 8 4 7 8 6 6 5 2 4 4 3 2 2 3 2 1 0 3 1 2 2 2 2 4 5 6 7 7 8 8 9 10 9 9 8 6 7 7 8 9 10 11 12 15 17 15 13 12 11 11 10 10 10 8 7 6 6 5 5 3 3 4 3 4 4 5 5 5 5 5 5 5 5 4 4 4 4 3 4 5 5 5 5
4 2 6 7 6 5 3 5 7 4 3 2 2 3 3 1 3 3 2 2 2 1 3 1 0 2 3 4 6 8 8 8 9 9 9 9 9 8 7 7 7 8 8 9 10 12 15 17 17 15 13 11 11 10 10 10 9 8 8 7 7 6 5 5 4 4 4 5 5 6 6 5 5 5 6 5 5 5 5 4 4 5 5 6 7 7
5 4 5 4 4 7 6 6 6 4 5 4 2 2 2 3 3 3 2 2 1 3 3 2 2 1 1 3 6 8 8 9 9 8 8 8 9 8 8 8 8 9 9 9 10 12 15 17 17 16 14 13 11 11 11 11 10 10 10 9 8 7 7 6 5 5 6 6 6 6 6 6 6 6 7 6 5 5 5 5 6 6 7 7 8 8
5 6 3 4 4 7 8 6 6 6 6 4 3 3 3 3 2 0 1 3 2 2 2 1 2 3 3 4 4 6 7 8 8 8 7 8 9 8 7 8 9 10 10 10 10 11 14 16 17 16 15 14 12 11 11 11 11 11 11 10 9 8 8 7 6 6 7 7 7 7 6 6 6 7 7 7 6 6 5 6 6 8 8 8 8 8
4 5 3 5 5 6 7 7 7 7 7 6 5 5 4 2 1 2 1 2 3 1 2 2 2 5 5 3 3 6 6 6 7 7 6 7 8 7 6 6 7 9 10 10 9 10 12 15 17 16 15 15 14 13 12 11 11 12 12 12 11 9 9 9 8 7 7 8 8 8 7 7 7 7 7 7 7 6 6 6 7 8 8 8 8 8
5 6 5 4 6 7 6 5 5 5 5 6 6 5 5 4 3 3 3 2 1 2 2 2 1 5 4 2 3 5 5 6 6 7 6 7 7 6 6 6 7 7 8 8 9 9 11 14 15 16 16 16 15 14 13 12 12 12 12 12 12 10 9 9 9 8 8 8 8 8 8 8 8 8 8 8 8 8 8 7 7 7 8 8 8 8
2 5 7 6 6 4 4 4 1 5 6 6 6 5 5 5 5 5 2 2 2 0 1 2 1 4 5 3 4 5 5 5 5 5 5 5 5 5 6 6 7 8 8 9 9 8 10 13 14 15 16 16 16 15 15 13 13 12 11 11 12 11 10 9 10 10 9 8 8 8 9 9 8 8 8 9 9 9 9 9 8 8 8 8 8 9
2 5 7 7 6 3 5 5 3 4 6 8 7 6 6 6 6 5 1 0 2 2 2 3 2 4 6 5 5 6 6 6 6 5 4 4 5 5 6 6 7 9 10 10 10 9 10 11 12 13 14 15 16 16 16 14 13 12 11 10 11 11 10 11 11 12 11 9 8 9 9 9 9 9 9 10 10 10 10 10 9 8 9 9 9 10
7 7 7 8 7 6 6 5 5 6 7 8 7 7 9 8 6 4 1 2 4 4 4 4 1 5 6 6 7 9 9 8 8 7 5 6 7 7 6 6 7 8 9 9 9 9 9 9 10 11 12 13 14 16 17 15 14 12 11 10 10 11 10 11 12 12 12 10 10 9 9 9 10 9 10 10 10 11 10 10 10 9 9 10 10 11
8 7 8 8 8 7 8 7 6 7 7 7 7 8 10 11 9 6 4 4 5 4 4 5 1 5 7 8 8 10 10 9 9 9 7 7 9 8 8 8 7 8 8 7 7 7 8 8 8 9 10 11 12 14 15 16 15 13 12 10 10 11 11 12 12 12 12 11 10 10 9 9 10 9 10 10 10 11 11 11 11 11 10 11 11 12
5 6 10 11 11 8 8 7 5 5 8 9 11 11 11 12 12 8 5 5 5 3 5 6 4 0 6 9 9 10 10 9 9 10 9 10 10 10 10 9 9 8 8 8 7 7 6 7 7 8 9 10 10 11 13 14 15 14 13 11 10 11 11 12 11 11 11 11 10 10 10 10 10 10 10 10 10 11 11 11 12 12 11 12 12 13
4 7 12 16 16 8 3 2 5 6 9 10 12 13 12 12 12 11 9 7 4 4 5 5 4 5 4 6 8 9 9 9 9 10 10 11 11 11 11 11 10 10 9 8 8 7 6 5 6 6 7 8 9 10 11 12 13 13 14 12 11 11 12 12 11 10 11 10 10 10 10 10 11 11 10 10 10 11 11 11 12 12 12 13 13 13
5 8 12 15 15 7 1 2 4 7 9 9 10 11 12 13 13 13 12 10 8 7 4 1 4 7 5 4 7 9 10 10 11 11 12 12 12 12 12 11 11 10 9 8 7 7 5 5 4 4 5 6 7 8 9 10 12 13 13 12 12 12 12 12 12 11 11 11 10 10 9 10 12 12 12 11 11 11 11 11 11 12 13 13 13 13
5 6 9 12 13 7 3 4 5 8 9 9 10 11 11 14 15 15 14 11 10 8 4 1 5 8 4 1 4 8 10 11 13 14 13 13 12 12 11 11 10 10 9 8 6 6 5 4 4 4 4 5 6 7 8 8 9 10 10 10 11 11 11 12 11 11 11 11 11 10 10 11 13 13 13 13 13 13 12 13 13 13 14 14 14 14
4 3 7 10 10 7 6 6 7 9 10 10 10 10 11 13 14 13 11 7 8 8 5 3 6 7 2 4 6 8 10 13 15 15 14 13 12 12 11 10 10 9 8 7 6 5 5 5 5 4 4 4 6 7 7 7 7 7 8 8 8 9 10 10 10 10 11 11 12 12 12 13 14 14 14 15 15 14 14 15 15 15 15 15 15 15
5 3 5 8 9 7 8 9 10 10 10 11 11 11 11 11 11 11 9 7 8 9 6 6 7 5 3 6 7 8 11 14 16 16 15 14 13 13 12 11 11 9 8 7 6 5 5 5 5 5 4 4 4 5 5 6 5 5 6 6 6 8 8 8 9 10 10 11 12 12 13 14 15 15 16 16 17 17 16 17 17 17 16 16 15 15
8 6 6 8 9 7 8 9 10 9 9 10 9 10 13 13 10 9 8 8 9 8 6 6 4 1 4 7 8 9 11 14 16 17 16 15 14 13 12 12 12 10 9 7 6 5 5 4 5 5 5 4 3 3 3 4 4 4 5 6 7 7 7 7 8 8 9 10 11 12 13 14 15 16 17 17 17 17 18 18 19 19 18 17 17 17
9 9 8 8 8 7 9 9 8 9 9 5 1 4 10 11 11 11 10 10 10 10 6 3 1 4 5 5 6 8 11 12 14 16 16 16 16 14 13 13 13 11 10 9 8 8 7 6 6 6 5 4 4 5 5 5 6 5 6 7 7 7 6 6 7 7 8 8 9 11 12 12 13 14 15 16 16 17 18 19 19 20 20 20 19 18
8 10 9 8 7 6 8 8 8 9 6 3 3 1 2 4 7 9 9 9 10 11 10 5 2 4 4 3 4 6 9 10 12 14 14 15 16 16 15 15 14 13 12 11 11 10 9 9 8 6 5 4 3 3 3 4 4 4 4 4 4 4 4 4 5 5 6 7 8 9 10 11 11 12 13 14 16 17 17 18 20 21 21 22 22 20
8 9 7 5 5 6 7 8 8 5 4 6 5 3 3 2 4 6 9 10 11 11 12 9 5 5 5 5 5 7 9 12 12 11 11 12 14 16 17 16 16 15 14 14 13 13 12 10 9 8 8 8 7 7 5 3 2 1 1 2 3 3 4 4 5 5 6 7 7 8 9 10 11 12 14 15 16 18 18 19 20 21 22 24 24 23
10 9 8 6 4 5 8 9 7 3 4 6 5 5 7 6 6 7 8 9 9 10 10 9 7 6 7 7 8 9 12 12 10 8 10 11 13 15 17 17 18 18 17 16 15 14 13 12 11 10 10 10 10 10 8 7 6 5 5 5 5 6 6 6 6 7 7 8 9 9 10 11 12 13 14 15 16 18 19 20 20 21 22 24 25 24
12 10 8 8 5 5 8 10 8 6 7 8 7 8 10 7 6 6 7 6 6 9 10 10 8 8 8 9 11 12 12 10 7 7 11 12 14 16 18 19 19 19 19 17 16 16 15 14 13 12 11 11 11 11 10 10 8 7 7 7 7 7 7 7 7 8 9 9 10 11 12 12 13 13 14 15 16 17 18 20 21 22 23 24 26 26
12 9 8 8 6 6 8 9 9 7 7 6 8 10 10 8 7 6 5 5 6 10 12 10 8 9 10 11 13 14 11 7 6 10 14 15 16 18 19 20 20 19 19 17 16 16 15 14 13 12 11 11 11 12 12 11 9 8 8 8 8 7 8 9 9 9 10 12 13 14 14 14 15 15 15 16 17 17 18 19 21 22 23 24 26 27
11 8 8 9 8 8 9 9 8 6 3 6 9 11 11 11 10 8 6 3 6 10 12 11 9 10 12 14 15 13 7 5 6 15 19 18 18 19 19 21 20 19 19 17 16 15 14 14 12 11 11 11 11 12 11 10 9 9 9 8 7 9 11 12 12 12 13 14 15 15 15 16 17 18 18 18 18 19 19 20 21 22 23 23 24 26
9 8 9 9 9 10 11 10 8 5 3 6 10 13 14 12 8 8 5 2 6 9 11 11 10 11 13 15 14 8 2 5 14 23 23 20 20 20 19 20 20 19 18 17 15 14 14 13 12 11 11 11 11 10 9 9 9 9 9 9 9 12 13 13 14 15 15 15 15 15 15 17 19 21 21 20 20 20 20 21 22 23 23 23 23 23
8 7 7 8 9 10 9 9 9 6 3 7 11 13 12 9 6 5 3 7 8 9 10 10 10 10 13 13 10 8 12 18 24 26 24 22 23 23 21 21 20 18 17 15 13 12 12 11 10 10 10 10 10 9 8 7 7 8 9 10 11 13 14 15 16 15 16 16 15 16 18 19 21 22 22 21 21 22 21 21 22 24 24 24 23 23
6 6 7 8 8 8 7 9 10 6 5 13 15 9 6 5 2 4 8 8 7 9 11 10 9 11 14 13 12 15 20 24 25 25 24 24 24 24 23 21 20 18 16 14 12 10 9 9 9 9 9 8 7 7 6 6 6 8 10 12 13 15 16 17 17 16 17 16 15 16 18 17 18 18 17 18 19 21 20 20 21 22 22 20 19 21
2 3 6 5 6 7 7 8 6 1 10 21 16 7 9 7 3 5 8 7 7 9 10 10 10 12 15 17 19 21 23 24 25 25 25 25 24 24 23 21 19 18 16 14 11 9 8 9 9 8 7 6 5 5 5 6 8 10 12 14 16 17 17 17 17 18 18 16 15 16 17 15 14 14 15 16 17 17 16 16 17 17 17 15 15 16
1 2 2 2 3 4 3 2 1 3 15 23 11 5 12 13 5 6 8 7 9 10 10 11 14 15 18 21 23 23 23 25 26 26 26 25 24 23 21 19 18 17 15 13 11 9 8 8 7 6 5 4 4 5 6 8 11 13 15 16 17 18 17 18 19 20 18 16 15 16 16 15 14 15 16 16 16 15 15 15 14 14 15 15 15 16
4 6 3 2 2 4 2 1 2 2 14 18 7 6 13 15 9 7 7 7 9 10 10 14 17 19 21 24 24 23 24 26 27 26 26 25 23 22 21 19 17 15 13 11 10 9 9 7 6 4 3 3 5 7 10 12 13 15 16 17 18 19 19 19 21 21 18 17 17 16 16 16 17 18 18 16 15 16 15 14 14 14 14 15 16 17
7 10 6 4 2 2 2 2 3 1 7 11 7 6 10 13 11 7 5 7 11 12 13 17 20 22 23 24 26 26 26 27 28 27 25 24 23 21 19 17 16 14 13 12 11 10 8 7 5 4 4 6 8 10 11 12 13 15 17 18 18 19 18 19 21 20 17 17 18 17 16 17 19 21 21 18 17 17 16 15 15 14 14 14 15 16
8 12 9 6 4 3 1 1 2 1 3 6 6 5 6 11 12 9 8 11 13 15 17 20 22 23 23 24 28 30 28 26 27 25 23 21 20 19 17 16 15 14 13 12 11 9 8 7 6 5 6 9 11 12 13 14 14 15 18 17 17 18 18 18 19 19 17 17 17 17 17 19 21 22 21 20 20 20 18 17 16 16 16 16 15 16
12 11 8 5 6 4 1 1 3 3 3 7 9 6 4 10 13 12 11 13 16 19 21 21 21 23 24 27 30 31 27 24 24 23 21 19 18 17 17 16 15 14 12 11 9 8 7 6 6 7 8 10 12 13 14 15 14 14 14 14 14 16 16 17 18 18 17 17 18 18 19 21 23 23 22 22 23 22 21 20 20 20 20 20 19 19
12 8 6 6 6 4 1 2 2 2 3 7 12 11 8 10 14 16 16 17 20 23 24 23 22 23 26 29 29 27 26 24 23 22 20 18 18 18 18 17 15 13 11 9 7 6 6 7 7 8 9 11 11 11 11 12 11 11 11 11 12 14 16 17 18 18 18 18 19 20 22 24 24 24 23 23 23 23 23 23 23 24 24 24 24 25
9 7 7 7 6 4 7 10 6 6 8 4 11 16 15 13 15 19 20 21 22 25 27 28 28 26 25 24 24 25 26 25 24 23 20 19 20 20 18 16 14 12 10 8 8 7 7 8 8 9 10 10 9 8 8 8 9 9 10 12 13 15 17 18 19 20 20 21 21 22 25 26 25 24 24 24 23 23 23 23 23 24 24 25 26 28
Wind_Direction
199 215 209 232 220 184 202 200 149 113 89 120 189 167 144 143 124 125 127 143 190 215 175 171 169 149 145 144 154 172 186 203 213 212 215 212 208 208 207 204 201 207 205 202 232 258 254 241 239 239 254 286 338 13 18 21 192 207 222 228 238 250 240 230 220 220 215 209 224 239 244 249 258 270 295 304 315 344 331 351 9 353 357 357 351 357
211 246 237 243 289 199 197 182 176 199 202 203 209 172 175 172 124 128 132 139 190 237 152 153 186 167 160 152 153 168 182 193 199 200 201 200 199 200 203 204 199 196 200 211 230 243 239 231 235 236 238 264 313 4 12 20 101 203 222 239 268 313 285 260 235 229 219 204 209 221 236 243 251 271 287 302 298 310 331 342 356 351 357 359 352 352
208 238 254 198 14 219 186 178 194 207 214 213 201 185 177 153 127 141 160 151 182 234 140 154 210 178 168 174 167 178 188 184 188 192 191 193 195 198 199 199 199 199 203 212 214 215 221 219 228 239 235 247 289 356 7 16 32 204 216 237 276 299 278 279 271 249 230 219 211 203 211 219 224 269 284 289 285 301 333 332 339 344 344 355 356 348
226 124 58 93 160 186 184 184 198 207 212 210 202 204 142 141 174 164 162 173 188 231 230 193 235 201 167 180 179 187 195 187 189 197 197 197 197 198 198 192 194 198 200 203 200 202 212 210 218 232 226 232 260 351 6 8 15 275 234 249 260 248 268 274 276 259 236 232 224 211 214 218 214 250 281 302 297 296 311 321 329 331 330 342 346 341
298 49 87 151 173 178 180 182 197 210 198 185 203 236 101 136 208 50 130 171 190 216 239 257 259 211 166 182 183 182 196 198 197 203 206 205 200 197 200 198 196 198 200 200 196 202 210 195 192 205 208 215 228 275 344 357 8 0 268 268 250 216 273 280 289 284 251 243 243 251 269 286 289 276 285 303 296 286 292 301 311 318 324 330 332 334
274 103 145 173 179 182 184 184 199 221 206 168 184 220 225 154 190 128 146 181 199 196 200 187 333 167 163 184 182 168 192 205 202 208 212 208 203 201 203 202 201 201 202 199 194 199 203 194 191 196 201 200 182 220 303 350 8 12 326 272 266 224 300 309 321 320 281 255 249 259 264 265 278 283 286 289 281 273 272 281 301 313 314 321 325 328
180 157 179 187 183 182 195 207 192 213 245 154 133 195 217 210 203 175 177 211 232 112 136 157 178 187 156 162 162 171 203 209 202 211 218 214 207 205 206 202 198 197 196 196 193 193 197 198 195 193 191 179 176 219 262 313 356 18 25 344 302 315 332 332 339 338 308 270 256 247 241 241 255 271 280 286 288 282 271 281 306 319 318 323 325 325
163 171 186 193 190 177 193 238 187 200 251 88 97 186 198 197 206 193 205 236 314 60 154 196 255 281 129 120 129 185 217 214 205 211 217 217 213 208 207 201 194 190 188 189 186 185 190 184 175 176 173 162 178 212 238 277 321 15 27 22 344 323 336 338 343 341 317 274 265 258 255 258 264 270 275 286 296 298 295 300 309 316 322 321 319 320
162 187 186 187 201 188 171 210 182 190 234 82 110 184 183 195 203 195 219 227 217 239 186 157 243 271 109 111 136 183 216 209 202 209 203 205 209 208 206 200 192 186 182 182 179 180 184 175 166 167 171 175 190 209 226 262 301 -0 23 26 4 330 333 336 346 344 323 291 268 266 267 266 272 278 281 289 296 300 306 311 311 312 318 313 313 315
125 203 213 193 211 197 138 133 176 195 211 99 141 175 165 194 197 200 230 205 197 245 161 116 222 279 90 119 150 175 205 188 177 191 176 171 190 200 199 194 190 183 180 181 177 175 172 169 169 171 180 191 200 210 224 250 288 339 10 21 13 347 331 332 347 342 326 313 287 273 265 256 267 282 288 297 300 303 310 311 303 303 307 304 308 311
110 128 247 221 224 72 105 106 136 183 153 138 166 176 163 174 185 198 224 224 218 222 114 109 226 294 32 124 138 132 126 137 162 166 154 150 162 176 182 185 186 183 181 180 174 171 170 171 175 179 187 197 204 212 223 237 259 298 342 12 18 1 332 328 341 327 319 312 289 272 268 260 258 272 286 299 302 301 309 308 288 288 299 303 308 316
181 182 187 187 175 125 125 125 124 143 165 181 189 181 165 159 178 190 188 211 225 161 118 116 169 267 265 93 86 104 120 174 193 156 153 153 145 155 170 179 183 183 182 180 174 172 177 181 184 189 195 201 206 212 222 229 240 262 299 343 12 15 352 323 310 300 298 297 286 272 277 281 273 271 273 283 291 290 290 287 281 294 308 309 311 322
200 191 159 149 169 180 167 144 142 161 186 210 214 195 189 158 172 175 159 180 171 112 115 120 185 250 283 67 90 132 145 165 180 157 150 145 135 147 163 171 176 181 183 181 177 178 185 190 193 197 201 206 209 213 220 225 232 249 271 303 343 10 7 331 281 284 283 277 284 278 281 290 289 290 279 271 281 280 272 268 273 289 297 301 309 320
182 165 164 165 174 199 205 182 162 173 195 214 221 199 180 114 156 123 113 154 115 103 115 130 218 240 115 89 113 141 134 133 151 160 148 139 134 143 156 165 170 177 182 181 179 184 189 192 196 201 204 208 210 212 218 224 227 240 257 278 309 343 -0 350 290 273 279 275 281 275 269 279 284 295 301 295 282 276 282 279 272 279 284 293 307 304
202 183 180 183 167 185 205 224 198 163 180 197 236 266 211 296 34 75 75 90 94 119 133 147 213 251 95 104 112 123 127 138 157 156 150 149 145 145 154 162 165 169 175 179 181 184 189 192 195 199 202 206 209 211 217 223 225 231 246 256 276 309 339 346 313 266 274 280 282 276 267 272 278 288 295 297 289 280 281 276 273 282 288 293 291 286
234 216 164 164 142 174 195 214 212 199 175 165 218 248 222 326 329 46 13 359 10 149 140 159 223 14 88 126 140 148 151 160 164 157 161 163 155 155 160 163 170 173 176 180 181 181 187 191 193 194 199 202 206 212 217 221 225 229 239 251 262 278 306 332 327 293 279 281 282 276 270 271 278 284 286 284 284 282 277 270 268 274 282 291 293 297
231 186 143 154 160 183 201 193 195 235 222 154 201 218 75 22 292 276 146 269 289 279 110 172 227 145 147 158 159 175 178 171 171 171 173 167 160 166 170 172 181 184 182 180 178 180 186 191 191 192 197 202 206 212 216 219 224 228 236 248 259 272 285 309 326 312 285 276 274 273 268 268 273 280 283 280 278 278 279 278 275 276 284 294 298 300
221 181 145 175 183 166 193 184 181 238 264 195 203 145 111 191 252 266 247 209 215 104 97 132 264 134 160 141 148 176 183 174 178 180 175 168 171 178 179 181 184 182 181 178 174 179 185 189 192 193 196 202 208 211 215 218 221 225 234 244 257 271 279 291 311 312 290 271 267 269 266 262 264 270 276 277 276 276 280 286 292 296 296 295 296 296
213 210 151 178 187 148 166 192 178 199 233 261 331 112 191 249 205 192 252 282 45 84 96 120 125 122 79 104 145 171 176 175 178 180 176 174 180 187 184 180 180 178 178 178 177 180 185 190 194 196 197 201 207 210 214 217 219 225 233 240 252 263 271 280 293 299 292 276 266 266 262 257 256 262 268 272 274 275 278 281 283 290 292 288 289 291
205 230 173 156 171 155 171 207 204 188 197 235 258 205 230 289 321 296 300 312 333 73 68 77 131 118 74 82 131 149 160 172 175 177 184 182 180 187 187 180 182 183 182 183 182 181 186 191 195 198 200 202 207 211 216 219 221 228 235 240 249 257 264 272 276 283 286 276 266 261 256 253 253 257 263 268 273 276 278 276 271 278 287 287 286 288
188 234 213 146 152 175 189 207 217 204 184 197 217 209 206 218 286 291 260 287 310 11 47 23 87 90 78 86 120 128 146 165 169 174 186 187 180 183 187 183 184 184 182 185 184 180 184 190 196 200 200 202 209 213 217 222 226 232 237 241 248 253 260 265 265 270 276 272 265 258 254 254 253 255 261 265 272 276 278 279 272 275 284 287 285 287
193 217 221 178 178 203 200 190 228 242 213 207 210 210 213 207 219 234 198 185 284 332 2 347 51 84 92 127 124 123 143 159 166 170 177 184 184 184 185 182 181 175 173 180 179 174 181 189 194 199 201 204 211 216 218 223 228 234 239 242 246 249 253 260 261 262 267 268 263 256 254 255 254 256 260 263 270 275 276 279 278 279 286 289 289 289
193 216 221 220 212 199 128 112 253 267 248 243 240 230 224 209 219 240 210 151 184 247 346 296 274 95 108 139 133 133 146 150 160 172 178 179 178 177 174 172 178 182 183 186 181 176 185 192 193 196 202 207 212 217 220 224 229 235 239 241 244 244 243 249 256 258 262 266 262 256 254 256 257 258 260 263 267 271 274 276 280 285 289 292 292 291
146 224 224 228 220 170 122 124 158 213 226 237 237 232 231 219 225 250 283 79 238 224 220 245 219 117 122 144 149 153 157 153 159 175 172 149 147 157 154 151 171 189 195 194 188 185 190 194 194 197 202 205 211 217 220 223 226 232 236 237 241 243 238 239 248 255 259 261 260 257 254 255 257 259 261 264 267 269 272 275 279 285 288 290 289 287
181 216 220 224 218 195 184 185 182 185 206 229 227 216 223 225 217 220 214 233 249 242 245 265 254 111 128 153 165 168 172 169 161 162 154 133 134 140 138 139 158 179 187 188 188 189 190 193 194 198 201 203 209 217 221 221 223 228 233 235 239 242 239 237 243 251 256 259 260 259 257 256 257 260 263 266 269 270 272 274 277 282 285 288 288 285
190 210 207 219 220 205 207 210 207 203 199 216 224 210 215 218 207 200 207 226 234 224 231 260 293 100 130 163 175 174 177 171 154 153 152 136 130 131 131 135 144 155 164 172 180 186 189 190 190 195 201 202 208 217 220 221 223 226 230 233 236 240 239 238 241 249 254 257 259 259 260 259 259 263 266 270 273 273 274 277 280 284 287 288 287 285
212 216 208 224 228 221 227 213 197 203 194 200 214 210 210 214 208 208 223 230 232 218 221 242 269 149 158 170 177 181 182 172 155 157 154 138 132 130 127 129 131 136 143 151 160 167 174 180 184 193 201 203 209 215 218 222 222 224 230 234 237 240 241 239 240 249 255 258 261 262 264 264 264 266 269 274 278 277 278 280 282 287 289 288 287 285
225 218 211 225 230 235 272 164 166 205 213 212 215 210 207 209 205 209 223 226 222 229 227 218 241 263 220 168 169 183 185 172 163 166 157 142 139 133 128 129 129 129 133 135 139 145 150 162 173 189 199 203 209 213 218 222 221 223 230 234 237 241 242 239 239 247 256 261 265 268 269 267 265 266 270 276 280 282 284 286 287 292 292 291 290 285
227 223 207 218 227 233 17 115 188 223 234 233 227 213 203 202 203 210 222 222 216 233 255 180 197 240 242 180 167 179 186 179 166 161 154 146 143 138 136 137 135 132 134 133 135 141 144 153 169 185 197 204 209 213 217 221 222 226 231 232 237 244 246 244 243 248 257 264 269 274 274 270 268 270 273 276 281 285 288 290 292 295 297 296 295 289
234 217 189 203 219 220 200 194 209 225 233 234 233 225 211 204 206 213 221 222 221 237 264 240 223 239 245 137 138 159 171 166 154 151 153 153 150 148 145 144 141 138 138 135 135 142 147 154 171 189 200 207 211 211 213 215 218 225 229 232 239 247 251 251 250 254 261 268 274 275 274 273 273 276 278 278 281 284 288 291 293 295 298 298 297 293
222 203 177 193 208 205 193 194 204 220 229 226 221 220 215 210 211 216 220 218 223 236 237 220 241 248 218 103 112 139 154 153 150 155 160 160 155 153 151 147 143 141 140 140 140 143 149 154 163 175 187 202 210 210 210 210 211 218 225 233 243 250 255 258 259 262 266 270 275 276 275 275 277 279 281 282 284 285 286 289 291 294 296 297 297 295
203 204 179 194 209 199 184 191 198 208 225 229 218 207 204 205 206 210 210 205 214 222 211 209 239 249 179 131 130 150 162 162 161 162 163 162 157 156 155 149 144 143 142 144 144 145 152 156 161 169 173 190 205 205 207 208 206 216 224 228 240 249 255 259 260 264 268 270 274 277 277 278 279 280 281 282 284 286 286 286 287 289 292 294 296 294
197 197 182 198 212 191 174 188 196 198 217 229 221 208 205 203 201 202 204 209 216 217 210 219 239 220 137 151 154 162 173 175 170 166 165 163 157 156 157 150 145 142 136 133 129 125 129 137 153 165 159 157 169 170 185 195 188 204 223 227 237 247 252 256 257 260 265 269 273 275 277 280 281 282 283 284 285 285 285 285 284 286 288 289 291 290
204 207 198 202 213 185 163 172 189 206 218 221 213 214 209 205 206 209 208 211 215 216 221 239 98 103 133 161 164 169 177 178 172 165 163 162 156 153 153 147 139 133 127 120 115 111 113 121 136 153 154 156 173 177 182 192 195 209 225 231 239 246 250 257 261 267 273 279 284 286 288 292 292 292 291 290 290 288 285 285 284 284 284 283 284 286
212 211 208 209 214 185 152 164 195 215 213 144 83 73 182 198 217 228 231 224 213 214 224 229 166 136 142 143 143 156 161 157 154 153 155 159 157 151 147 140 134 129 125 118 113 109 109 115 122 134 136 133 147 156 163 184 201 216 230 243 256 266 279 290 297 304 307 308 309 308 310 309 306 303 298 293 289 285 282 282 282 281 281 279 279 281
221 210 198 192 195 168 157 183 203 201 139 120 116 116 122 150 207 230 242 234 219 218 225 227 207 160 145 144 145 146 144 139 134 131 138 152 155 151 144 138 133 128 124 121 119 115 111 111 110 112 111 102 94 92 92 96 96 73 35 350 346 351 349 348 351 350 346 340 335 334 329 323 319 314 310 305 299 294 291 288 281 278 279 278 276 276
227 220 188 171 183 181 184 197 200 176 154 161 164 174 180 188 194 208 235 240 224 216 218 221 212 182 160 152 149 148 148 146 137 124 132 145 150 146 140 134 131 127 124 124 122 116 113 111 106 104 104 99 94 89 81 73 64 56 50 41 33 26 17 13 13 5 357 352 347 344 338 331 328 324 321 320 315 309 307 302 292 283 279 276 275 274
222 229 200 186 197 206 206 206 204 215 219 204 179 166 174 183 177 192 232 245 213 200 204 210 207 190 170 153 151 153 156 160 160 147 146 147 143 138 133 128 127 126 124 122 117 113 112 109 105 102 99 94 87 79 73 69 64 55 49 44 38 33 24 15 8 357 349 347 342 336 332 327 324 322 319 318 316 313 311 308 303 296 286 277 273 271
217 229 222 207 191 191 210 211 207 219 224 194 156 144 154 160 148 164 228 234 181 179 192 197 191 182 172 161 158 161 171 189 181 154 150 148 141 136 131 126 123 120 119 118 117 116 114 109 106 99 89 80 71 65 64 63 62 58 51 46 41 32 17 4 356 348 339 333 328 323 318 314 311 308 306 306 306 305 304 302 301 300 295 286 278 273
206 214 222 212 189 183 203 213 215 221 194 142 136 135 144 151 152 174 222 219 150 164 179 184 183 177 168 164 166 173 196 234 170 147 148 146 138 133 129 124 121 118 117 118 119 118 113 108 103 91 78 70 64 63 63 57 50 44 41 40 28 10 359 350 343 338 329 324 322 319 315 310 307 304 302 301 299 298 297 297 296 297 297 294 287 282
199 202 210 211 199 191 200 216 222 209 131 124 137 137 137 142 165 205 220 137 137 164 172 174 176 171 165 168 177 180 139 95 125 135 140 138 131 126 121 118 117 117 118 120 120 117 112 104 95 83 74 69 66 66 63 52 42 33 25 18 1 352 348 340 334 330 325 322 321 316 312 309 306 304 302 301 300 298 297 297 297 298 299 298 294 290
195 192 198 208 210 201 203 220 224 207 136 130 136 135 142 160 190 208 143 111 137 162 163 164 167 164 164 168 165 135 111 114 124 130 133 132 127 123 120 120 121 122 121 119 115 110 104 96 86 78 74 72 70 68 59 47 38 25 10 357 348 345 342 336 333 329 324 321 318 313 311 310 308 307 307 305 303 301 300 301 301 302 304 303 301 298
191 194 202 202 202 200 202 210 216 216 155 144 138 134 179 202 168 128 125 119 134 153 154 156 155 154 158 151 130 121 122 124 127 129 129 129 126 126 129 131 132 130 124 118 113 107 99 91 85 80 77 75 72 65 53 33 17 7 356 349 348 347 343 340 338 333 329 328 324 319 320 320 317 317 316 311 308 306 304 303 303 304 306 304 302 304
177 215 224 205 193 202 203 201 210 165 153 162 156 156 195 193 103 123 154 145 141 151 150 147 145 149 151 140 128 127 126 125 128 128 127 128 129 132 135 136 134 130 124 121 119 111 99 92 88 84 81 73 58 42 29 10 -0 357 355 353 351 350 346 343 338 336 336 336 332 329 331 331 328 328 326 320 317 316 311 307 306 305 304 300 296 300
45 0 280 253 243 248 232 193 0 77 156 170 167 133 168 175 152 147 162 151 148 155 150 142 143 145 144 137 131 129 129 128 130 131 130 132 134 134 134 134 132 128 125 126 123 113 104 99 95 91 83 63 37 18 10 5 1 359 357 354 350 347 344 339 335 335 338 339 336 334 335 334 330 330 329 326 324 325 321 316 313 309 306 303 298 295
30 25 327 269 289 303 323 73 36 115 162 170 160 116 158 176 177 158 149 143 146 149 146 145 144 143 143 140 135 133 134 134 134 135 135 135 135 135 135 134 132 130 129 130 126 119 115 111 103 95 76 40 20 12 8 6 3 357 353 350 345 342 341 337 335 337 338 338 337 335 334 332 328 327 329 326 324 323 321 317 318 315 311 308 304 300
49 24 329 267 235 255 228 134 84 125 177 175 162 138 157 175 179 166 145 144 145 142 143 144 143 142 144 143 139 137 138 139 140 139 138 137 136 138 138 135 132 131 133 132 128 122 117 111 101 82 48 22 17 16 11 6 1 352 348 346 343 342 342 339 338 341 340 336 334 332 329 328 326 326 327 323 319 319 316 312 314 314 313 311 309 306
8 359 329 271 238 233 223 70 53 4 235 204 184 163 159 170 173 165 153 152 148 142 142 144 143 144 145 144 142 141 141 143 144 141 138 137 137 136 136 136 137 137 136 133 129 123 116 109 92 61 37 21 15 10 2 358 355 349 347 347 344 343 344 341 340 341 337 331 329 326 322 322 322 322 321 317 314 314 311 307 306 306 307 308 305 305
313 315 316 293 261 239 192 180 184 185 228 221 209 204 169 163 167 165 159 155 148 140 139 141 143 145 146 146 146 144 142 142 143 141 139 138 136 135 138 141 141 139 137 137 135 124 107 91 67 46 32 17 9 3 356 354 354 351 350 350 346 345 346 342 338 337 331 325 323 319 315 315 316 316 313 310 309 308 305 303 301 299 300 301 300 302
302 300 318 308 263 236 6 354 203 207 260 223 203 201 194 174 169 163 154 149 146 143 140 139 140 143 147 149 148 145 143 142 143 143 141 139 141 143 144 144 142 140 141 138 126 105 78 60 48 35 22 11 7 5 -0 357 357 355 352 350 345 343 342 338 333 329 324 320 317 313 310 311 312 310 307 305 305 303 302 302 301 300 299 300 302 305
298 323 326 309 278 282 347 349 325 302 310 264 191 193 200 192 173 159 150 147 148 148 147 144 140 140 144 147 147 146 145 145 145 144 141 141 145 145 144 144 144 142 136 122 103 83 61 47 34 21 14 13 14 13 7 1 -0 357 351 346 342 338 335 332 328 322 318 316 312 310 309 310 309 307 305 304 304 303 302 303 303 302 301 301 302 304